Atlanta Dekalb, GA

11:18 PM EST on February 23, 2018 (GMT -0500)
Dekalb-Peachtree

Weather History for KPDK - January, 2013

Change the Weather History Date:

Sunday, January 13, 2013

  Actual Average Record
Temperature  
Mean Temperature 66 °F 42 °F  
Max Temperature 72 °F 51 °F 74 °F (2017)
Min Temperature 60 °F 33 °F 19 °F (2011)
Degree Days  
Heating Degree Days 0 23  
Month to date heating degree days 299  
Since 1 July heating degree days 1467  
Cooling Degree Days 1    
Growing Degree Days 16 (Base 50)    
Moisture  
Dew Point 59 °F    
Average Humidity 84    
Maximum Humidity 97    
Minimum Humidity 64    
Precipitation  
Precipitation 0.01 in 0.15 in 0.97 in (2005)
Month to date precipitation 1.51  
Year to date precipitation 1.51  
Snow  
Snow 0.00 in - - ()
Month to date snowfall  
Since 1 July snowfall  
Snow Depth -    
Sea Level Pressure  
Sea Level Pressure 30.06 in    
Wind  
Wind Speed 5 mph (SSE)    
Max Wind Speed 12 mph    
Max Gust Speed 16 mph    
Visibility 10 miles    
Events Rain    
T = Trace of Precipitation, MM = Missing Value Source: NWS Daily Summary

Daily Weather History Graph

Daily Weather History Graph

Search for Another Location

Airport or City:

Trip Planner

Search our weather history database for the weather conditions in past years. The results will help you decide how hot, cold, wet, or windy it might be!

Date:

Astronomy

Jan. 13, 2013 Rise Set
Actual Time 7:42 AM EST 5:49 PM EST
Civil Twilight 7:15 AM EST 6:16 PM EST
Nautical Twilight 6:44 AM EST 6:47 PM EST
Astronomical Twilight 6:14 AM EST 7:17 PM EST
Moon 8:48 AM EST (1/13) 8:18 PM EST (1/13)
Length of Visible Light 11h 01m
Length of Day
10h 07m
Waxing Crescent, 5% of the Moon is Illuminated
Jan 13
Waxing Crescent
Jan 18
First Quarter
Jan 26
Full
Feb 3
Last Quarter
Feb 10
New

Hourly Weather History & Observations

Time (EST) Temp. Dew Point Humidity Pressure Visibility Wind Dir Wind Speed Gust Speed Precip Events Conditions
12:53 AM 61.0 °F 55.9 °F 83% 30.06 in 10.0 mi SE 3.5 mph - N/A   Mostly Cloudy
1:53 AM 60.1 °F 57.0 °F 90% 30.04 in 10.0 mi SSE 4.6 mph - N/A   Partly Cloudy
2:53 AM 61.0 °F 57.9 °F 90% 30.04 in 10.0 mi SSE 4.6 mph - N/A   Overcast
3:35 AM 60.8 °F 57.2 °F 88% 30.06 in 10.0 mi South 4.6 mph - N/A   Overcast
3:53 AM 61.0 °F 57.9 °F 90% 30.03 in 10.0 mi SSE 3.5 mph - N/A   Overcast
4:03 AM 60.8 °F 59.0 °F 94% 30.05 in 10.0 mi South 5.8 mph - N/A   Overcast
4:31 AM 62.6 °F 59.0 °F 88% 30.05 in 10.0 mi South 3.5 mph - N/A   Overcast
4:53 AM 61.0 °F 59.0 °F 93% 30.02 in 10.0 mi ESE 3.5 mph - N/A   Overcast
5:05 AM 60.8 °F 59.0 °F 94% 30.04 in 10.0 mi ESE 3.5 mph - N/A   Scattered Clouds
5:30 AM 60.8 °F 59.0 °F 94% 30.05 in 9.0 mi Variable 3.5 mph - N/A   Mostly Cloudy
5:53 AM 61.0 °F 59.0 °F 93% 30.03 in 9.0 mi SSE 5.8 mph - N/A   Overcast
6:53 AM 61.0 °F 59.0 °F 93% 30.05 in 9.0 mi ESE 5.8 mph - N/A   Overcast
7:53 AM 61.0 °F 60.1 °F 97% 30.09 in 9.0 mi SSE 3.5 mph - N/A   Overcast
8:32 AM 62.6 °F 60.8 °F 94% 30.11 in 8.0 mi SE 4.6 mph - N/A   Overcast
8:53 AM 62.1 °F 60.1 °F 93% 30.10 in 9.0 mi SE 3.5 mph - N/A   Overcast
9:02 AM 62.6 °F 60.8 °F 94% 30.13 in 9.0 mi SE 4.6 mph - N/A   Overcast
9:53 AM 63.0 °F 60.1 °F 90% 30.12 in 10.0 mi SSE 4.6 mph - N/A   Overcast
10:00 AM 62.6 °F 60.8 °F 94% 30.14 in 10.0 mi SSE 5.8 mph - N/A   Overcast
10:04 AM 62.6 °F 60.8 °F 94% 30.14 in 10.0 mi SE 5.8 mph - N/A   Overcast
10:53 AM 64.0 °F 60.1 °F 87% 30.11 in 10.0 mi South 6.9 mph - N/A   Overcast
11:53 AM 66.0 °F 60.1 °F 81% 30.09 in 10.0 mi South 6.9 mph - N/A   Overcast
12:53 PM 68.0 °F 60.1 °F 76% 30.05 in 10.0 mi South 11.5 mph - N/A   Mostly Cloudy
1:00 PM 68.0 °F 60.8 °F 78% 30.07 in 10.0 mi SSW 10.4 mph 16.1 mph N/A   Overcast
1:53 PM 71.1 °F 60.1 °F 68% 30.03 in 10.0 mi South 8.1 mph 16.1 mph N/A   Mostly Cloudy
2:53 PM 70.0 °F 59.0 °F 68% 30.04 in 10.0 mi SSW 11.5 mph - N/A   Mostly Cloudy
3:00 PM 71.6 °F 59.0 °F 64% 30.05 in 10.0 mi South 9.2 mph - N/A   Overcast
3:53 PM 72.0 °F 59.0 °F 64% 30.03 in 10.0 mi South 10.4 mph - N/A   Mostly Cloudy
4:53 PM 70.0 °F 57.9 °F 65% 30.03 in 10.0 mi South 5.8 mph - N/A   Partly Cloudy
5:53 PM 68.0 °F 59.0 °F 73% 30.02 in 10.0 mi SE 4.6 mph - N/A   Partly Cloudy
6:53 PM 68.0 °F 59.0 °F 73% 30.01 in 10.0 mi SSE 8.1 mph - N/A   Mostly Cloudy
7:53 PM 68.0 °F 59.0 °F 73% 30.02 in 10.0 mi South 6.9 mph - N/A   Clear
8:53 PM 68.0 °F 60.1 °F 76% 30.02 in 10.0 mi North - - N/A   Mostly Cloudy
9:53 PM 68.0 °F 60.1 °F 76% 30.02 in 10.0 mi South 11.5 mph - N/A   Overcast
10:53 PM 66.0 °F 61.0 °F 84% 30.03 in 10.0 mi South 6.9 mph - 0.00 in   Overcast
11:51 PM 64.4 °F 60.8 °F 88% 30.06 in 8.0 mi South 8.1 mph - 0.01 in Rain Light Rain
11:53 PM 64.9 °F 61.0 °F 87% 30.04 in 8.0 mi South 8.1 mph - 0.01 in Rain Light Rain